Location: Tucson
(32.2217°N, 110.9265°W)
Time: 07:12:43
(UTC-07:00)

Vanguard 2 Rocket - Visible Passes

Search period start: 25 October 2021 00:00
Search period end: 04 November 2021 00:00
Orbit: 556 x 3323 km, 32.9° (Epoch: 24 October)

Date Brightness Start Highest point End Pass type
(mag) Time Alt. Az. Time Alt. Az. Time Alt. Az.
25 Oct 9.8 03:00:15 32° S 03:05:06 36° SSE 03:16:22 10° E visible
25 Oct 8.8 05:06:06 12° WSW 05:21:23 68° SSE 05:30:31 10° E visible
26 Oct 10.2 02:04:29 29° SE 02:04:29 29° SE 02:15:21 10° E visible
26 Oct 9.1 04:10:20 28° SW 04:20:19 58° SSE 04:30:56 10° E visible
27 Oct 10.6 01:08:38 17° ESE 01:08:38 17° ESE 01:13:05 10° E visible
27 Oct 9.5 03:14:27 42° S 03:18:55 49° SSE 03:30:58 10° E visible
27 Oct 8.6 05:20:17 13° WSW 05:35:20 81° SSE 05:44:34 10° E visible
28 Oct 9.8 02:18:29 40° SE 02:18:29 40° SE 02:30:26 10° E visible
28 Oct 8.9 04:24:18 32° SW 04:34:12 72° SSE 04:45:03 10° E visible
29 Oct 10.4 01:22:24 25° ESE 01:22:24 25° ESE 01:29:06 10° E visible
29 Oct 9.2 03:28:13 52° SSW 03:32:42 62° SSE 03:45:13 10° E visible
29 Oct 8.6 05:34:02 13° W 05:49:21 89° SSE 05:58:37 10° E visible
30 Oct 10.9 00:26:15 10° E 00:26:15 10° E 00:26:30 10° E visible
30 Oct 9.5 02:32:03 52° SE 02:32:03 52° SE 02:44:55 10° E visible
30 Oct 8.8 04:37:51 32° WSW 04:48:07 83° SSE 04:59:06 10° E visible
31 Oct 10.1 01:35:49 33° ESE 01:35:49 33° ESE 01:44:02 10° E visible
31 Oct 9.1 03:41:36 56° SW 03:46:31 75° SSE 03:59:16 10° ENE visible
31 Oct 8.6 05:47:25 12° W 06:03:24 87° N 06:12:41 10° E visible
01 Nov 10.7 00:39:30 16° E 00:39:30 16° E 00:42:18 10° E visible
01 Nov 9.3 02:45:18 65° SE 02:45:18 65° SE 02:59:05 10° ENE visible
01 Nov 8.8 04:51:05 30° W 05:02:06 90° NNW 05:13:08 10° E visible
02 Nov 9.9 01:48:56 42° ESE 01:48:56 42° ESE 01:58:25 10° ENE visible
02 Nov 9.0 03:54:43 55° WSW 04:00:24 85° SSE 04:13:18 10° E visible
02 Nov 8.7 06:00:43 10° W 06:17:28 88° N 06:26:45 10° E visible
03 Nov 10.5 00:52:31 22° E 00:52:31 22° E 00:57:07 10° E visible
03 Nov 9.2 02:58:18 77° SSE 02:58:20 77° SSE 03:13:08 10° ENE visible
03 Nov 8.9 05:04:05 26° W 05:16:10 87° N 05:27:12 10° E visible
